Simultaneous Nadir Overpasses (SNOs) Predictions

Prediction of SNOs between AQUA and NPP Satellite Orbit:

Table of predicted SNOs for the next 14.0 days since TLE Epoch: 4/6/2018
Index Date (AQUA) Time (AQUA) Lat,Lon (AQUA) SZA (AQUA ) Date (NPP) Time (NPP) Lat,Lon (NPP) SZA (NPP ) Distance(km) Time Diff (sec)
1 04/06/2018 22:38:56 75.99, 79.43 90.73 04/06/2018 22:38:17 75.99, 79.42 90.77 0.29 39
2 04/06/2018 23:28:03 -76.98,-109.63 90.44 04/06/2018 23:28:41 -76.98,-109.59 90.48 0.86 38
3 04/09/2018 14:55:20 76.27,-163.83 89.40 04/09/2018 14:55:07 76.26,-163.86 89.41 0.89 13
4 04/09/2018 15:44:27 -77.24, 7.23 91.77 04/09/2018 15:45:31 -77.24, 7.27 91.84 1.05 64
5 04/12/2018 06:22:35 -75.68, 142.59 90.92 04/12/2018 06:21:31 -75.68, 142.59 90.86 0.24 64
6 04/12/2018 07:11:42 76.58, -46.92 88.03 04/12/2018 07:11:55 76.58, -46.95 88.03 1.06 13
7 04/14/2018 22:38:57 -76.04,-100.46 92.31 04/14/2018 22:38:19 -76.04,-100.43 92.29 0.75 38
8 04/14/2018 23:28:05 76.88, 70.03 86.69 04/14/2018 23:28:44 76.88, 70.00 86.66 0.80 39
9 04/17/2018 14:55:18 -76.43, 16.70 93.73 04/17/2018 14:55:06 -76.44, 16.76 93.74 1.71 12
10 04/17/2018 15:44:28 77.18,-173.00 85.37 04/17/2018 15:45:33 77.18,-173.00 85.32 0.14 65
11 04/20/2018 06:22:37 75.59, -37.66 86.32 04/20/2018 06:21:34 75.59, -37.68 86.38 0.54 63




NCC Satellite Simultaneous Nadir Overpasses (SNOs) Prediction Service
